• Join FlightAware (Why Join?)
  • Login
  • US Flag GB Flag 
09:04 EST


 

Airport Tracker/Info


-or-


 

Live Flight TrackerFlight Track Log ✈ SKW5500 ✈ 18-Apr-2013 ✈ KASE - KDEN

Flight Track Log - Related Links

Times and Time Zones

All times are in EDT time to prevent confusion due to time zone crossing. See the SKW5500 flight status page for this flight to view local times or setup timezone preferences in your user account.

Time Position Orientation Groundspeed Altitude Reporting Facility
EDT Latitude Longitude Course Direction KTS MPH feet Rate Location/Type
18:38 39.2694 -106.9372 292° West 217 250 11,900  Level Denver Center
18:39 39.3125 -106.9817 321° Northwest 235 270 14,700 2,460 Climbing Denver Center
18:40 39.3949 -106.7081 101° East  Level FlightAware Approximate
18:40 39.3406 -106.9061 64° Northeast 253 291 17,000  Level Denver Center
18:41 39.3756 -106.5945 104° East  Level FlightAware Approximate
18:41 39.3442 -106.8014 87° East 291 335 18,500  Level Denver Center
18:42 39.3531 -106.4819 104° East  Level FlightAware Approximate
18:42 39.3469 -106.6817 88° East 327 376 20,100  Level Denver Center
18:43 39.3494 -106.5242 89° East 362 417 22,200 2,160 Climbing Denver Center
18:44 39.3544 -106.3967 87° East 371 427 24,600 1,320 Climbing Denver Center
18:45 39.3614 -106.2486 86° East 373 429 25,000 180 Climbing Denver Center
18:46 39.3669 -106.1214 87° East 380 437 25,000  Level Denver Center
18:47 39.3739 -105.9858 86° East 376 433 25,000 -540 Level Denver Center
18:48 39.3800 -105.8297 87° East 371 427 23,900 -1,620 Descending Denver Center
18:49 39.3861 -105.7028 86° East 353 406 21,800 -2,040 Descending Denver Center
18:50 39.3922 -105.5811 86° East 341 392 19,800 -2,040 Descending Denver Center
18:51 39.4181 -105.4619 74° East 331 381 17,700 -1,980 Descending Denver Center
18:52 39.4386 -105.3528 76° East 309 356 15,800 -1,500 Descending Denver Center
18:53 39.4742 -105.2614 63° Northeast 277 319 14,600 -1,140 Descending Denver Center
18:54 39.5519 -105.2169 24° Northeast 281 323 13,500 -840 Descending Denver Center
18:55 39.6192 -105.1967 13° North 254 292 13,000 -300 Descending Denver Center
18:56 39.6872 -105.1728 15° North 241 277 13,000 -600 Level Denver Center
18:57 39.7542 -105.1508 14° North 246 283 11,800 -1,140 Descending Denver Center
18:58 39.7969 -105.0800 52° Northeast 254 292 10,700 -1,200 Descending Denver Center
18:59 39.8364 -104.9975 58° Northeast 251 289 9,400 -1,260 Descending Denver Center